Last 30 Days

Alpine-Roundhouse Btm 6950'

Daily Data | America/Los_Angeles
as of 8/12/20 2:41 PM PDT
Date Daily Max Temp (°F) Max Temp Time Daily Min Temp (°F) Min Temp Time Wind Spd (mph) Daily Max Wind (mph) Max Wind Dir (°) Max Wind Time Daily Rain (In) Seasonal Rainfall (In) SnowDepth (in) Max RH (%) Min RH (%) Wet Bulb (°F) WetB Hrs <28F (hrs) Min Press (inHg) Time of Min Press Bat Volt Min Day (V)
8/11/20 75.8 1143 55.5 2344 3.2 17.8 S | 172 1329 0.00 17.78 2.6 57 21 51.0 0.0 30.16 1845 13.1
8/10/20 82.1 1314 57.7 0718 2.1 18.6 NW | 311 1518 0.01 17.78 1.4 66 18 53.3 0.0 30.18 2355 13.1
8/9/20 82.4 1325 56.7 0720 2.2 11.0 WNW | 291 1941 0.00 17.77 0.5 66 14 54.5 0.0 30.21 2010 13.1
8/8/20 79.4 1449 55.1 0717 2.3 13.1 S | 187 1614 0.00 17.77 1.8 74 18 54.9 0.0 30.19 0055 13.1
8/7/20 75.8 1451 49.9 0607 2.4 12.1 S | 187 1600 0.00 17.77 2.4 66 30 50.3 0.0 30.11 0510 13.1
8/6/20 70.3 1249 48.8 0630 2.7 18.6 SSW | 193 1451 0.00 17.77 3.4 61 24 46.6 0.0 30.08 0445 13.1
8/5/20 72.6 1217 53.1 2326 3.2 17.0 S | 170 1532 0.02 17.77 1.8 59 25 48.0 0.0 30.09 1955 13.0
8/4/20 77.8 1319 54.0 0620 2.7 17.0 S | 176 1457 0.00 17.75 2.0 53 20 49.0 0.0 30.16 2030 13.0
8/3/20 76.9 1327 52.8 0655 2.7 16.7 SSE | 161 1458 0.00 17.75 2.3 48 12 46.3 0.0 30.24 2350 13.1
8/2/20 76.6 1329 56.6 0655 3.2 18.8 S | 176 1726 0.00 17.75 1.7 36 11 45.8 0.0 30.25 0410 13.1
8/1/20 79.3 1333 55.8 0651 2.5 13.8 NNW | 334 1651 0.00 17.75 3.2 39 9 47.2 0.0 30.24 0445 13.1
7/31/20 79.0 1439 58.8 2358 3.1 15.6 S | 178 1440 0.00 17.75 3.8 38 10 48.0 0.0 30.23 0410 13.1
7/30/20 77.6 1329 58.3 2212 3.0 17.1 S | 172 1838 0.00 17.75 2.1 48 23 50.6 0.0 30.22 0400 13.1
7/29/20 78.0 1647 56.5 0522 2.3 14.0 S | 175 1439 0.00 17.75 3.2 53 14 49.3 0.0 30.17 0410 13.1
7/28/20 77.3 1340 54.2 0557 2.8 15.6 SSE | 164 1848 0.01 17.75 2.5 71 24 52.3 0.0 30.16 1855 13.1
7/27/20 77.3 1211 56.1 0629 2.1 12.4 SSE | 157 1524 0.00 17.74 2.9 63 22 51.6 0.0 30.18 1530 13.1
7/26/20 80.1 1416 55.3 0630 2.4 18.6 S | 181 1553 0.00 17.74 3.0 70 15 51.6 0.0 30.20 1420 13.1
7/25/20 76.3 1245 53.1 0555 2.4 17.1 NNW | 342 1348 0.00 17.74 2.2 64 31 51.8 0.0 30.16 1650 13.1
7/24/20 74.4 1323 52.2 0637 2.6 15.3 SSW | 202 1607 0.00 17.74 2.7 74 28 51.3 0.0 30.12 0435 13.1
7/23/20 73.8 1336 51.6 0556 2.3 14.2 NNW | 344 1646 0.00 17.74 1.1 76 35 51.4 0.0 30.08 0415 13.1
7/22/20 73.6 1329 55.4 2322 2.7 18.3 SSE | 159 1549 0.00 17.74 2.5 68 40 53.2 0.0 30.06 0645 13.1
7/21/20 81.4 1315 57.9 0629 2.2 15.1 SSE | 154 1636 0.00 17.74 1.7 61 20 53.9 0.0 30.09 1910 13.1
7/20/20 81.7 1416 59.0 0412 2.4 16.8 S | 171 1653 0.00 17.74 1.7 64 17 53.2 0.0 30.19 2150 13.1
7/19/20 82.3 1329 58.2 0702 2.6 16.0 SSE | 167 1655 0.00 17.74 2.3 56 23 53.1 0.0 30.22 1455 13.1
7/18/20 79.9 1300 56.0 0626 2.5 17.9 S | 176 1659 0.00 17.74 2.8 58 24 53.0 0.0 30.22 0340 13.1
7/17/20 79.2 1231 58.5 0643 3.0 20.2 SE | 132 1621 0.00 17.74 3.6 63 18 53.5 0.0 30.18 0305 13.1
7/16/20 83.2 1350 59.6 0409 2.3 13.1 SSE | 157 1450 0.00 17.74 2.2 65 16 54.8 0.0 30.15 1515 13.1
7/15/20 82.3 1729 56.3 0658 2.2 11.1 SSW | 196 1357 0.00 17.74 2.4 74 18 54.6 0.0 30.16 1735 13.1
7/14/20 77.0 1726 53.7 0641 2.4 14.5 NW | 323 1606 0.00 17.74 1.7 60 25 52.2 0.0 30.14 0320 13.1
7/13/20 75.3 1318 58.2 0448 3.8 21.3 SSE | 168 1329 0.00 17.74 0.9 55 23 50.1 0.0 30.12 1830 13.1
Max 83.2 - 59.6 - 3.8 21.3 - - 0.02 - 3.8 76 40 54.9 0.0 30.25 - 13.1
Avg - - - - 2.6 - - - - - 2.3 - - 51.2 - - - -
Min 70.3 - 48.8 - 2.1 11.0 - - 0.00 - 0.5 36 9 45.8 0.0 30.06 - 13.0